THORAD AGENA D DEB

Satellite information

Favourite Embed

Satellite Type and Status

DEBRISIN ORBIT

Key statistics

Satellite THORAD AGENA D DEB at a glance.

Uptime

20339

Days in orbit

Revolutions

≈ 14.2

Per day

Orbit

SSO

Sun Synchronous Orbit

Inclination

99.8

Latest

Satellite identification and parameters

Extended collection of information and parameters for THORAD AGENA D DEB.

Object identification

Identified? True

Debris? True

Object name: THORAD AGENA D DEB

International designator: 1970-025KN

Object number (NORAD): 5349

Object ID (CCSDS): 5349

Country: UNITED STATES OF AMERICA (US)

Current information (Y/N): Y

RCS size: SMALL

Orbital parameters

Period: 101.209 minutes

Inclination: 99.8122 deg

SMA: 7194.03 km

Apoapsis: 856.873 km

Periapsis: 774.917 km

RAAN: 203.3989 deg

Eccentricy: 0.00569616

Argument of periapsis: 323.3562 deg

Mean anomaly: 36.3723 deg

Mean motion: 14.22801726 rev/day

Mean motion (dot): 0.00006444 rev/day2

B* drag term: 0.0028456035 1/REarth

Two-line elements (TLE)

Creation date: Dec. 14, 2025, 3:07 a.m.

Reference frame: TEME

Reference center: EARTH

Epoch: Dec. 13, 2025, 2:42 p.m. UTC

TLE line 0: 0 THORAD AGENA D DEB

TLE line 1: 1 05349U 70025KN 25347.61287677 .00006444 00000-0 28456-2 0 9995

TLE line 2: 2 05349 99.8122 203.3989 0056962 323.3562 36.3723 14.22801726723504

Live tracking on map

Real-time ground track for satellite THORAD AGENA D DEB.

In-orbit conjunctions

A list of the most updated potential collisions computed for object THORAD AGENA D DEB.

Target Orbit TCA Probability of collision Miss distance Type
SL-16 DEB LEO 2025-10-21 00:33:22 0.0001818886 58.0 (m) DEBRIS
SL-16 DEB LEO 2025-03-05 16:58:46 0.0002076442 83.0 (m) DEBRIS
COSMOS 2251 DEB LEO 2025-01-18 02:38:15 0.0001572991 231.0 (m) DEBRIS
FENGYUN 1C DEB SSO 2024-11-13 02:12:49 0.0001405539 333.0 (m) DEBRIS
CZ-6A DEB SSO 2024-07-29 19:44:15 0.0001485294 188.0 (m) DEBRIS

Associated space launch

Meteorological research and development satellite

THORAD AGENA D DEB was lifted into orbit during the mission ‘Thorad SLV-2G Agena D | Nimbus 4’, on board a Thorad SLV-2G Agena D space rocket.

The launch took place on April 8, 1970, 8:17 a.m. from Space Launch Complex 2E.

For more information about the launch, click the button.

Launch to space Thorad SLV-2G Agena D | Nimbus 4
Thorad SLV-2G Agena D | Nimbus 4

Agency: N/A

Status: Launch Successful

Launch date: April 8, 1970, 8:17 a.m. UTC

Rocket: Thorad SLV-2G Agena D

Launch pad: Space Launch Complex 2E

Location: Vandenberg SFB, CA, USA

...

Latest news about this satellite

There are no fresh news available about this satellite. Check back as we update our databases every day.


Newsletter sign-up

Weekly statistics, charts and insights to help you stay on top of the space industry.